Birmingham, AL

8:34 PM CST on February 25, 2018 (GMT -0600)
Birmingham International

Weather History for KBHM - April, 2013

Change the Weather History Date:

Monday, April 15, 2013

  Actual Average Record
Temperature  
Mean Temperature 66 °F 62 °F  
Max Temperature 73 °F 74 °F 88 °F (1936)
Min Temperature 58 °F 50 °F 31 °F (1950)
Degree Days  
Heating Degree Days 0 5  
Month to date heating degree days 81 91  
Since 1 July heating degree days 2546 2603  
Cooling Degree Days 1 2  
Month to date cooling degree days 28 23  
Year to date cooling degree days 35 45  
Growing Degree Days 14 (Base 50)    
Moisture  
Dew Point 57 °F    
Average Humidity 80    
Maximum Humidity 93    
Minimum Humidity 66    
Precipitation  
Precipitation 0.00 in 0.14 in 1.67 in (1922)
Month to date precipitation 2.52 2.27  
Year to date precipitation 22.30 16.87  
Snow  
Snow 0.00 in 0.00 in - ()
Month to date snowfall 0.0 0.2  
Since 1 July snowfall 2.1 1.6  
Snow Depth 0.00 in    
Sea Level Pressure  
Sea Level Pressure 30.00 in    
Wind  
Wind Speed 5 mph (SE)    
Max Wind Speed 12 mph    
Max Gust Speed 16 mph    
Visibility 10 miles    
Events      
T = Trace of Precipitation, MM = Missing Value Source: NWS Daily Summary

Daily Weather History Graph

Daily Weather History Graph

Search for Another Location

Airport or City:

Trip Planner

Search our weather history database for the weather conditions in past years. The results will help you decide how hot, cold, wet, or windy it might be!

Date:

Astronomy

Apr. 15, 2013 Rise Set
Actual Time 6:16 AM CDT 7:18 PM CDT
Civil Twilight 5:50 AM CDT 7:43 PM CDT
Nautical Twilight 5:20 AM CDT 8:14 PM CDT
Astronomical Twilight 4:49 AM CDT 8:45 PM CDT
Moon 9:50 AM CDT (4/15) No Moon Set
Length of Visible Light 13h 53m
Length of Day
13h 01m
Waxing Crescent, 25% of the Moon is Illuminated
Apr 15
Waxing Crescent
Apr 18
First Quarter
Apr 25
Full
May 2
Last Quarter
May 9
New

Hourly Weather History & Observations

Time (CDT) Temp. Dew Point Humidity Pressure Visibility Wind Dir Wind Speed Gust Speed Precip Events Conditions
12:53 AM 57.9 °F 54.0 °F 87% 29.92 in 10.0 mi Calm Calm - N/A   Overcast
1:12 AM 57.2 °F 53.6 °F 88% 29.93 in 10.0 mi Calm Calm - N/A   Overcast
1:34 AM 57.2 °F 53.6 °F 88% 29.93 in 10.0 mi Calm Calm - N/A   Overcast
1:53 AM 57.9 °F 54.0 °F 87% 29.92 in 10.0 mi Calm Calm - N/A   Overcast
2:53 AM 57.9 °F 55.0 °F 90% 29.92 in 10.0 mi Calm Calm - N/A   Overcast
3:53 AM 59.0 °F 55.0 °F 87% 29.93 in 10.0 mi ESE 4.6 mph - N/A   Overcast
4:50 AM 59.0 °F 55.4 °F 88% 29.95 in 10.0 mi Calm Calm - N/A   Overcast
4:53 AM 59.0 °F 55.9 °F 90% 29.95 in 10.0 mi Calm Calm - N/A   Overcast
5:53 AM 59.0 °F 55.9 °F 90% 29.96 in 10.0 mi ESE 3.5 mph - N/A   Overcast
6:53 AM 59.0 °F 55.9 °F 90% 30.00 in 10.0 mi ESE 3.5 mph - N/A   Overcast
7:53 AM 60.1 °F 55.9 °F 86% 30.03 in 10.0 mi ESE 4.6 mph - N/A   Overcast
8:53 AM 62.1 °F 57.0 °F 84% 30.03 in 10.0 mi SE 5.8 mph - N/A   Overcast
9:53 AM 64.0 °F 57.0 °F 78% 30.04 in 10.0 mi SSE 4.6 mph - N/A   Overcast
10:53 AM 64.9 °F 57.0 °F 75% 30.05 in 10.0 mi South 5.8 mph - N/A   Overcast
11:53 AM 66.9 °F 57.9 °F 73% 30.06 in 10.0 mi South 6.9 mph - N/A   Overcast
12:53 PM 66.9 °F 57.9 °F 73% 30.05 in 10.0 mi South 8.1 mph - N/A   Overcast
1:53 PM 68.0 °F 57.9 °F 70% 30.04 in 10.0 mi Variable 4.6 mph - N/A   Overcast
2:53 PM 70.0 °F 59.0 °F 68% 30.02 in 8.0 mi ESE 8.1 mph - N/A   Overcast
3:53 PM 71.1 °F 59.0 °F 66% 30.01 in 9.0 mi SE 6.9 mph - N/A   Overcast
4:31 PM 71.6 °F 59.0 °F 64% 30.02 in 10.0 mi SE 6.9 mph - N/A   Partly Cloudy
4:53 PM 72.0 °F 59.0 °F 64% 30.01 in 10.0 mi SSE 9.2 mph 16.1 mph N/A   Scattered Clouds
5:53 PM 72.0 °F 59.0 °F 64% 30.02 in 10.0 mi SSE 5.8 mph - N/A   Scattered Clouds
6:53 PM 71.1 °F 60.1 °F 68% 30.03 in 10.0 mi ESE 8.1 mph - N/A   Clear
7:53 PM 68.0 °F 60.1 °F 76% 30.04 in 10.0 mi East 3.5 mph - N/A   Clear
8:53 PM 66.9 °F 60.1 °F 79% 30.05 in 10.0 mi Variable 3.5 mph - N/A   Clear
9:53 PM 66.9 °F 59.0 °F 76% 30.06 in 10.0 mi ENE 3.5 mph - N/A   Clear
10:53 PM 66.0 °F 59.0 °F 78% 30.07 in 10.0 mi East 4.6 mph - N/A   Clear
11:53 PM 66.0 °F 59.0 °F 78% 30.08 in 10.0 mi East 3.5 mph - N/A   Partly Cloudy